[[{"header":{"parameterUnit":"m.s-1","parameterCategory":2,"la1":30.2991,"la2":30.254,"lo1":-89.0895,"lo2":-89.0444,"dy":0.0017,"dx":0.0017,"nx":28,"ny":28,"refTime":"2025-04-07T09:00:00:Z","depth":"0","parameterNumber":2,"parameterNumberName":"U-component_of_CURRENTS"},"data":[0,0,0,0,0,0,0,0,0,0,0,0,0,0,0,0,0,0,0,0,0,0,0,0,0,0,0,0,0,0,0,0,0,0,0,0,0,0,0,0,0,0,0,0,0,0,0,0,0,0,0,0,0,0,0,0,0,0,0.2961,0.2961,0,0.296,0.296,0.2959,0.293,0.293,0.2929,0.2929,0.2886,0.2885,0.2885,0,0,0,0,0,0,0,0,0,0,0,0,0,0.2948,0.2948,0.2961,0.2961,0.2961,0.296,0.2959,0.2959,0.293,0.293,0.2929,0.2929,0.2886,0.2886,0.2885,0,0,0,0,0,0,0,0,0,0,0,0,0,0.2948,0.2948,0.2961,0.2949,0.2948,0.296,0.2959,0.2959,0.293,0.293,0.2929,0.2928,0.2887,0.2886,0.2885,0.2893,0,0,0.2881,0.2881,0,0,0,0,0,0,0,0,0.2948,0.2948,0.2951,0.295,0.2949,0.2947,0.294,0.2936,0.2931,0.2934,0.2929,0.2928,0.2905,0.2903,0.29,0.2891,0.2889,0.2881,0.2881,0.288,0.288,0,0,0,0,0,0,0,0.2948,0.2948,0.2957,0.2951,0.295,0.2947,0.2946,0.2939,0.2921,0.2934,0.2932,0.2937,0.2904,0.2901,0.2899,0.2888,0.2881,0.288,0.288,0.2879,0.2913,0.2914,0,0,0,0,0,0,0.2955,0.2949,0.2958,0.2958,0.295,0.2948,0.2947,0.2946,0.2921,0.2918,0.2938,0.2936,0.2903,0.29,0.2897,0.2928,0.288,0.2879,0.2879,0.2912,0.2913,0.2915,0,0,0,0,0,0,0.2954,0.2955,0.2958,0.2956,0.2956,0.295,0.2949,0.2946,0.2948,0.2926,0.2921,0.2942,0.2903,0.2899,0.2903,0.2925,0.2879,0.2878,0.291,0.2912,0.2914,0.2973,0,0,0,0,0,0,0.2954,0.2955,0.2957,0.2956,0.2957,0.2969,0.295,0.2947,0.2953,0.295,0.2928,0.2923,0.2902,0.2904,0.2902,0.2922,0.2877,0.2908,0.2911,0.2913,0.297,0.2977,0.2984,0,0,0,0,0,0.2953,0.2957,0.2957,0.2959,0.2959,0.297,0.297,0.2961,0.2954,0.2959,0.2949,0.2924,0.292,0.2905,0.2901,0.2922,0.2906,0.291,0.2913,0.2966,0.2976,0.2984,0,0,0,0,0,0,0.2946,0.2955,0.2955,0.2959,0.2969,0.2967,0.297,0.2969,0.2966,0.2963,0.2939,0.2934,0.2948,0.2931,0.2914,0.2943,0.2911,0.2914,0.2953,0.2962,0.2969,0.2981,0.2876,0,0,0,0,0,0.295,0.2956,0.2965,0.2969,0.2975,0.2976,0.298,0.298,0.2978,0.2976,0.2962,0.2955,0.296,0.2956,0.2953,0.2965,0.2971,0.2979,0.2986,0.2992,0.3002,0.3037,0.3048,0.2926,0.2926,0.2926,0,0,0.2947,0.2954,0.2956,0.2969,0.2973,0.299,0.2976,0.2988,0.3005,0.2972,0.2984,0.2979,0.2971,0.2987,0.2992,0.2973,0.3033,0.2997,0.3002,0.3008,0.3041,0.3053,0.3064,0.2928,0.2928,0.2928,0,0,0.295,0.2953,0.2962,0.2976,0.2994,0.3002,0.301,0.3017,0.3021,0.3038,0.3026,0.304,0.3033,0.3039,0.304,0.3088,0.3074,0.3085,0.3127,0.316,0.3171,0.318,0.3214,0.3225,0.3085,0.3085,0.3085,0,0.2948,0.2959,0.2967,0.2985,0.2999,0.3011,0.303,0.3044,0.3052,0.3063,0.3049,0.3074,0.3063,0.3099,0.3115,0.3105,0.3121,0.3091,0.317,0.3179,0.3187,0.322,0.3232,0.3088,0.3088,0.3088,0.3087,0,0.2961,0.2974,0.2982,0.301,0.3029,0.3046,0.3073,0.3091,0.31,0.3114,0.3149,0.3146,0.3161,0.3165,0.3153,0.3209,0.3201,0.3178,0.3146,0.3203,0.3234,0.3245,0.3093,0.3092,0.3091,0.309,0,0,0.2942,0.2983,0.2984,0.2999,0.3043,0.3055,0.3099,0.3137,0.3176,0.3185,0.3231,0.3245,0.3248,0.3252,0.3246,0.3274,0.3347,0.3253,0.3254,0.3286,0.3429,0.3419,0.3431,0.3336,0.3338,0.334,0.3431,0,0.2948,0.2977,0.3003,0.3036,0.3053,0.3089,0.3131,0.3172,0.3212,0.3261,0.3277,0.3318,0.3281,0.3302,0.3325,0.3349,0.3379,0.3325,0.3371,0.3372,0.3355,0.3444,0.339,0.3466,0.3442,0.3443,0.3445,0,0.2947,0.2969,0.2997,0.3048,0.3061,0.309,0.3162,0.3205,0.3287,0.3324,0.3371,0.339,0.3444,0.3403,0.3467,0.3435,0.3439,0.3448,0.3451,0.3429,0.3384,0.3404,0.3487,0.3461,0.3462,0.3461,0.3459,0,0.2913,0.296,0.298,0.2996,0.3062,0.3088,0.313,0.3216,0.327,0.3375,0.3428,0.3484,0.3525,0.3544,0.3557,0.3523,0.3628,0.3579,0.3573,0.3572,0.3529,0.352,0.359,0.3625,0.3625,0.3625,0.3624,0,0.2901,0.2914,0.2964,0.2973,0.3013,0.3069,0.3134,0.32,0.3309,0.3377,0.3453,0.3522,0.3563,0.3617,0.3609,0.3642,0.3668,0.361,0.3606,0.3549,0.3542,0.3517,0.3489,0.3628,0.3627,0.3627,0.3626,0,0.2855,0.2887,0.2912,0.2974,0.2995,0.3023,0.3124,0.3175,0.3295,0.3394,0.3432,0.357,0.3657,0.3692,0.375,0.3715,0.3668,0.3737,0.3672,0.3659,0.3612,0.3589,0.3466,0.3356,0.3757,0.3758,0.3758,0,0.2833,0.284,0.2894,0.2906,0.2932,0.2985,0.3024,0.315,0.3217,0.341,0.3452,0.3595,0.3684,0.3795,0.3792,0.3816,0.369,0.3751,0.367,0.3635,0.3607,0.3417,0.3318,0.3641,0.3641,0.364,0.364,0,0.279,0.2808,0.2826,0.2855,0.2884,0.2921,0.2992,0.305,0.32,0.3305,0.345,0.3552,0.3705,0.3746,0.3805,0.3793,0.3621,0.3741,0.3724,0.3554,0.3331,0.3215,0.3557,0.3636,0.3636,0.3636,0.3637,0.3637,0.275,0.2749,0.2771,0.279,0.2816,0.2839,0.2847,0.2951,0.3052,0.3191,0.3357,0.3487,0.3677,0.3779,0.3738,0.3701,0.3588,0.3626,0.3613,0.3432,0.3284,0.3623,0.3679,0.3679,0.368,0.368,0.3681,0,0.2688,0.269,0.2705,0.271,0.2695,0.2745,0.2801,0.2804,0.2876,0.307,0.3198,0.3432,0.3546,0.3646,0.3723,0.3625,0.3393,0.3534,0.3281,0.3195,0.3552,0.351,0.3507,0.3507,0.3507,0.3507,0.3507,0.3507,0.2654,0.2629,0.2633,0.2582,0.2583,0.2528,0.2535,0.2578,0.269,0.2842,0.2986,0.3157,0.3517,0.3749,0.373,0.3612,0.3336,0.3194,0.3119,0.3451,0.3457,0.3464,0.342,0.3398,0.3398,0.2636,0.2631,0.2628]},{"header":{"parameterUnit":"m.s-1","parameterCategory":2,"la1":30.2991,"la2":30.254,"lo1":-89.0895,"lo2":-89.0444,"dy":0.0017,"dx":0.0017,"nx":28,"ny":28,"refTime":"2025-04-07T09:00:00:Z","depth":"0","parameterNumber":3,"parameterNumberName":"V-component_of_CURRENTS"},"data":[0,0,0,0,0,0,0,0,0,0,0,0,0,0,0,0,0,0,0,0,0,0,0,0,0,0,0,0,0,0,0,0,0,0,0,0,0,0,0,0,0,0,0,0,0,0,0,0,0,0,0,0,0,0,0,0,0,0,0.0126,0.0126,0,0.0084,0.0083,0.0082,0.0051,0.0051,0.005,0.005,0.0001,-0.0,-0.0002,0,0,0,0,0,0,0,0,0,0,0,0,0,0.0117,0.0117,0.0126,0.0126,0.0125,0.0084,0.0083,0.0082,0.0051,0.0051,0.005,0.005,0.0001,-0.0,-0.0002,0,0,0,0,0,0,0,0,0,0,0,0,0,0.0101,0.0117,0.0126,0.0105,0.0103,0.0084,0.0083,0.0082,0.0051,0.0051,0.005,0.005,0.0002,-0.0,-0.0002,-0.0008,0,0,-0.0007,-0.0008,0,0,0,0,0,0,0,0,0.0102,0.0101,0.0109,0.0107,0.0104,0.0073,0.0061,0.0052,0.0051,0.0069,0.005,0.005,0.0025,0.0022,0.0012,-0.001,-0.0012,-0.0007,-0.0008,-0.0009,-0.001,0,0,0,0,0,0,0,0.0103,0.0103,0.0108,0.0108,0.0106,0.0077,0.0075,0.0059,0.0048,0.0068,0.0066,0.0063,0.0024,0.0014,0.0011,-0.0013,-0.0007,-0.0009,-0.001,-0.0011,-0.0046,-0.0046,0,0,0,0,0,0,0.0115,0.0104,0.0109,0.0107,0.0104,0.0077,0.0075,0.0082,0.0048,0.0043,0.0063,0.0062,0.0017,0.0013,0.0009,0.0015,-0.0009,-0.0011,-0.0012,-0.0046,-0.0046,-0.0046,0,0,0,0,0,0,0.0115,0.0116,0.0111,0.0105,0.0102,0.0078,0.0087,0.0082,0.0076,0.0045,0.004,0.0063,0.0017,0.0012,0.0002,0.0012,-0.0012,-0.0013,-0.0046,-0.0046,-0.0046,0.0017,0,0,0,0,0,0,0.0115,0.0117,0.0124,0.0106,0.0103,0.0111,0.0087,0.0081,0.0075,0.0073,0.0043,0.0038,0.0016,0.0004,-0.0,0.0009,-0.0015,-0.0046,-0.0046,-0.0046,0.0015,0.0019,0.0023,0,0,0,0,0,0.0115,0.0134,0.0125,0.0125,0.0115,0.0112,0.0108,0.0088,0.0075,0.008,0.0057,0.0039,0.0002,0.0003,-0.0002,0.0007,-0.0046,-0.0046,-0.0046,0.0013,0.0018,0.0023,0,0,0,0,0,0,0.0133,0.0132,0.0121,0.0139,0.0129,0.0107,0.0108,0.0094,0.0078,0.0075,0.0044,0.0038,0.0031,0.0009,0.0011,-0.0004,-0.0026,-0.0027,0.002,0.0025,0.0029,0.0049,-0.0016,0,0,0,0,0,0.0141,0.0155,0.0143,0.0155,0.0153,0.013,0.0125,0.0113,0.0097,0.009,0.0069,0.0044,0.0027,0.0019,-0.0001,-0.0005,-0.0035,-0.0005,-0.0001,0.0003,0.0014,-0.0026,-0.0024,-0.0045,-0.0045,-0.0045,0,0,0.0151,0.0151,0.0158,0.0159,0.0148,0.016,0.0127,0.0126,0.0134,0.0087,0.009,0.006,0.0028,0.0022,0.0017,0.0007,-0.0008,0.0003,0.0007,0.0016,-0.0026,-0.0023,-0.0022,-0.0045,-0.0045,-0.0045,0,0,0.0182,0.0178,0.0201,0.02,0.0192,0.0181,0.0185,0.0168,0.0157,0.0152,0.012,0.0099,0.0073,0.0053,0.004,0.0055,0.0015,0.0045,0.0085,0.0046,0.0048,0.0049,0.0011,0.0009,0.0048,0.0048,0.0048,0,0.0192,0.0223,0.0205,0.0227,0.0236,0.0197,0.0225,0.0209,0.019,0.0188,0.0163,0.0119,0.0089,0.0084,0.0086,0.0066,0.0036,0.0072,0.0053,0.0053,0.0053,0.0014,0.0011,0.0051,0.0051,0.0051,0.005,0,0.0244,0.0266,0.0279,0.0298,0.0303,0.0318,0.0301,0.0296,0.0273,0.0256,0.0238,0.0187,0.0164,0.0145,0.0121,0.011,0.0087,0.0063,0.0044,0.006,0.0017,0.0012,0.0056,0.0055,0.0054,0.0053,0,0,0.028,0.0312,0.0317,0.0343,0.0345,0.0358,0.0366,0.037,0.0384,0.0336,0.0345,0.0293,0.0258,0.0239,0.0196,0.0158,0.0126,0.0117,0.0114,0.0088,0.004,0.0016,0.0008,0.0098,0.0098,0.0097,0.0009,0,0.0328,0.0391,0.0391,0.0448,0.0481,0.0456,0.0471,0.0464,0.0446,0.0441,0.0371,0.0361,0.0296,0.0286,0.0236,0.0159,0.0116,0.0152,0.0022,0.0018,0.0002,0.0002,0.0021,-0.0056,0.0004,0.0003,0.0002,0,0.0382,0.0422,0.0489,0.0533,0.0545,0.0566,0.0591,0.0604,0.0579,0.0563,0.0526,0.0471,0.0413,0.0351,0.0219,0.0245,0.0153,0.008,0.0074,0.003,-0.0014,-0.0063,-0.0068,-0.0247,-0.0006,-0.0005,-0.0005,0,0.0429,0.049,0.055,0.0566,0.0605,0.0625,0.0642,0.064,0.0672,0.0645,0.0656,0.0563,0.0527,0.0397,0.0241,0.0232,0.0088,0.0054,-0.0058,-0.0061,-0.0081,-0.0085,-0.0265,-0.0041,-0.0041,-0.0041,-0.004,0,0.0487,0.0534,0.0576,0.0611,0.0685,0.0685,0.0756,0.0755,0.0772,0.0823,0.0727,0.0737,0.0537,0.0429,0.0274,0.0096,0.0109,-0.0047,-0.0084,-0.006,-0.006,-0.0245,-0.0367,-0.0044,-0.0043,-0.0043,-0.0042,0,0.0533,0.0556,0.0633,0.0688,0.0712,0.0766,0.0847,0.0898,0.0896,0.0958,0.0954,0.0868,0.0728,0.0519,0.0306,0.0152,-0.0139,-0.0092,-0.005,-0.008,-0.0348,-0.0466,-0.0694,-0.0794,-0.0227,-0.0228,-0.0229,0,0.0563,0.0607,0.0698,0.0753,0.0783,0.0865,0.0926,0.0959,0.1031,0.1048,0.1089,0.0968,0.092,0.0592,0.0289,0.0007,-0.018,-0.0172,-0.0191,-0.0361,-0.052,-0.0594,-0.0667,-0.0198,-0.0199,-0.0199,-0.02,0,0.0625,0.0652,0.0719,0.0837,0.0915,0.1019,0.1112,0.119,0.1233,0.1282,0.1327,0.1286,0.0969,0.0703,0.0296,0.0079,-0.0314,-0.019,-0.038,-0.0524,-0.0605,-0.0717,-0.0147,-0.0204,-0.0204,-0.0203,-0.0203,-0.0203,0.0669,0.0728,0.0816,0.0931,0.1027,0.1159,0.1265,0.1372,0.1496,0.1599,0.1533,0.1533,0.1111,0.0569,0.023,-0.0348,-0.0366,-0.0496,-0.0628,-0.0689,-0.0783,-0.0221,-0.0311,-0.0311,-0.0311,-0.0311,-0.0311,0,0.0727,0.0797,0.0906,0.1044,0.1164,0.1207,0.1382,0.1503,0.1668,0.1767,0.1818,0.1635,0.1111,0.055,-0.0222,-0.0663,-0.0841,-0.0921,-0.1027,-0.1084,-0.0588,-0.0582,-0.0716,-0.0716,-0.0716,-0.0716,-0.0716,-0.0716,0.0758,0.0869,0.0929,0.1134,0.1237,0.1418,0.1529,0.1708,0.1839,0.1993,0.2025,0.201,0.1605,0.0168,-0.0802,-0.1066,-0.1402,-0.1487,-0.1657,-0.1319,-0.1288,-0.1259,-0.128,-0.156,-0.1561,-0.2066,-0.2071,-0.2076]}],[{"header":{"parameterUnit":"m.s-1","parameterCategory":2,"la1":30.2991,"la2":30.254,"lo1":-89.0895,"lo2":-89.0444,"dy":0.0017,"dx":0.0017,"nx":28,"ny":28,"refTime":"2025-04-07T09:00:00:Z","depth":"2","parameterNumber":2,"parameterNumberName":"U-component_of_CURRENTS"},"data":[0,0,0,0,0,0,0,0,0,0,0,0,0,0,0,0,0,0,0,0,0,0,0,0,0,0,0,0,0,0,0,0,0,0,0,0,0,0,0,0,0,0,0,0,0,0,0,0,0,0,0,0,0,0,0,0,0,0,0.2839,0.2839,0,0.2842,0.2841,0.2841,0.2818,0.2817,0.2817,0.2817,0.2782,0.2781,0.2781,0,0,0,0,0,0,0,0,0,0,0,0,0,0.2821,0.2821,0.2839,0.2839,0.2839,0.2842,0.2841,0.2841,0.2818,0.2817,0.2817,0.2816,0.2782,0.2781,0.2781,0,0,0,0,0,0,0,0,0,0,0,0,0,0.2824,0.2821,0.2839,0.283,0.283,0.2842,0.2841,0.2841,0.2818,0.2817,0.2817,0.2816,0.2782,0.2781,0.2781,0.2787,0,0,0.2778,0.2778,0,0,0,0,0,0,0,0,0.2823,0.2824,0.2831,0.2831,0.283,0.2831,0.2822,0.2822,0.2818,0.2819,0.2817,0.2816,0.2797,0.2795,0.2793,0.2785,0.2784,0.2778,0.2777,0.2777,0.2777,0,0,0,0,0,0,0,0.2823,0.2824,0.2837,0.2832,0.2831,0.2829,0.2828,0.2822,0.2808,0.2819,0.2818,0.2823,0.2796,0.2794,0.2792,0.2783,0.2778,0.2777,0.2777,0.2776,0.2814,0.2815,0,0,0,0,0,0,0.2829,0.2824,0.2837,0.2837,0.2829,0.283,0.2829,0.2829,0.2809,0.2807,0.2824,0.2822,0.2796,0.2793,0.2791,0.2825,0.2777,0.2776,0.2776,0.2812,0.2814,0.2816,0,0,0,0,0,0,0.2829,0.283,0.2837,0.2833,0.2834,0.2831,0.2831,0.283,0.2834,0.2814,0.281,0.2831,0.2795,0.2792,0.2799,0.2822,0.2776,0.2775,0.2811,0.2813,0.2815,0.2874,0,0,0,0,0,0,0.2828,0.283,0.2834,0.2833,0.2835,0.285,0.2832,0.283,0.2839,0.2837,0.2819,0.2814,0.2795,0.28,0.2798,0.282,0.2774,0.2809,0.2812,0.2814,0.287,0.2878,0.2885,0,0,0,0,0,0.2827,0.2832,0.2834,0.2836,0.284,0.2851,0.2851,0.2845,0.284,0.2846,0.2839,0.2815,0.2817,0.2801,0.2798,0.282,0.2807,0.2811,0.2814,0.2867,0.2877,0.2885,0,0,0,0,0,0,0.2822,0.2831,0.2832,0.2839,0.2849,0.2848,0.2854,0.2854,0.2854,0.2853,0.2831,0.2827,0.2844,0.2827,0.281,0.2841,0.281,0.2813,0.2851,0.286,0.2867,0.2879,0.2774,0,0,0,0,0,0.2826,0.2833,0.2843,0.2849,0.2856,0.2859,0.2864,0.2865,0.2865,0.2865,0.2853,0.2849,0.2855,0.2853,0.2851,0.2865,0.287,0.2879,0.2887,0.2893,0.2902,0.2936,0.2947,0.2827,0.2827,0.2827,0,0,0.2824,0.2832,0.2835,0.285,0.2855,0.2873,0.286,0.2874,0.2891,0.2861,0.2876,0.2873,0.2866,0.2884,0.289,0.2871,0.2933,0.2897,0.2903,0.2909,0.2941,0.2952,0.2963,0.2829,0.2829,0.2828,0,0,0.2829,0.2835,0.2846,0.2859,0.2879,0.2887,0.2896,0.2905,0.291,0.293,0.2919,0.2934,0.2931,0.2936,0.2938,0.2987,0.2973,0.2985,0.3027,0.306,0.307,0.3078,0.3111,0.3123,0.2986,0.2986,0.2986,0,0.283,0.2842,0.2851,0.2869,0.2884,0.2897,0.2916,0.2931,0.2941,0.2954,0.2942,0.2969,0.296,0.2996,0.3013,0.3004,0.3019,0.2991,0.3069,0.3078,0.3086,0.3117,0.3129,0.2989,0.2989,0.2988,0.2988,0,0.2844,0.2858,0.2867,0.2896,0.2915,0.2933,0.296,0.298,0.2991,0.3005,0.3043,0.3041,0.3058,0.3062,0.3051,0.3108,0.31,0.3077,0.3045,0.3102,0.3131,0.3143,0.2994,0.2992,0.2991,0.2991,0,0,0.2829,0.2869,0.2871,0.2887,0.2931,0.2943,0.2987,0.3025,0.3064,0.3076,0.3122,0.3138,0.3144,0.3148,0.3143,0.3171,0.3243,0.3152,0.3152,0.3183,0.3323,0.3309,0.332,0.3233,0.3235,0.3237,0.3325,0,0.2836,0.2866,0.2891,0.2925,0.2942,0.2978,0.302,0.306,0.3101,0.3151,0.3167,0.321,0.3176,0.3199,0.3221,0.3245,0.3274,0.3222,0.3266,0.3267,0.3246,0.3332,0.3047,0.3101,0.3335,0.3337,0.3338,0,0.2837,0.2859,0.2888,0.2938,0.2951,0.2981,0.3053,0.3095,0.3176,0.3214,0.3261,0.3282,0.3335,0.3297,0.336,0.3329,0.3334,0.3343,0.3346,0.3319,0.3274,0.3081,0.3112,0.3357,0.3355,0.3354,0.3353,0,0.2806,0.2853,0.2873,0.289,0.2954,0.2981,0.3023,0.3108,0.3161,0.3265,0.3318,0.3374,0.3416,0.3435,0.3448,0.3416,0.3517,0.3469,0.3459,0.3458,0.3218,0.3192,0.3515,0.3515,0.3514,0.3514,0.3514,0,0.2795,0.2809,0.2859,0.2869,0.291,0.2965,0.303,0.3096,0.3202,0.327,0.3345,0.3411,0.3454,0.3506,0.3498,0.3528,0.3556,0.3495,0.3491,0.3233,0.3209,0.3422,0.341,0.3517,0.3517,0.3516,0.3516,0,0.2753,0.2785,0.281,0.2872,0.2893,0.2923,0.3023,0.3073,0.3191,0.3288,0.3326,0.346,0.3543,0.3578,0.3634,0.3599,0.3624,0.3617,0.3321,0.3282,0.3529,0.3519,0.363,0.363,0.3631,0.3631,0.3631,0,0.2732,0.274,0.2795,0.2808,0.2835,0.2889,0.2927,0.305,0.3116,0.3303,0.3343,0.3483,0.3561,0.3666,0.3625,0.3637,0.3666,0.3382,0.3271,0.3562,0.3546,0.3536,0.3526,0.297,0.2965,0.2961,0.2957,0,0.2692,0.2712,0.2729,0.276,0.279,0.2826,0.2896,0.2951,0.3097,0.3196,0.3333,0.3425,0.3536,0.3442,0.348,0.3435,0.3362,0.3302,0.3676,0.3003,0.2952,0.2933,0.2942,0.292,0.2923,0.2926,0.2928,0.293,0.2655,0.2654,0.2677,0.2698,0.2724,0.2745,0.2751,0.2837,0.2928,0.3023,0.3198,0.3222,0.3264,0.3192,0.31,0.3009,0.3238,0.3068,0.3075,0.3088,0.3015,0.2968,0.2925,0.2929,0.2932,0.2935,0.2937,0,0.2589,0.2598,0.2613,0.2619,0.2595,0.2655,0.2706,0.2673,0.2718,0.2826,0.2912,0.2711,0.2692,0.2711,0.2527,0.2555,0.2461,0.2443,0.2275,0.2318,0.2355,0.2236,0.1944,0.194,0.1937,0.1934,0,0,0.2555,0.2528,0.2531,0.2475,0.2483,0.2412,0.2417,0.2394,0.2423,0.2391,0.2373,0.2572,0.2667,0.2266,0.223,0.2051,0.2156,0.1971,0.2778,0.2626,0.2657,0.2743,0.2615,0,0,0,0,0]},{"header":{"parameterUnit":"m.s-1","parameterCategory":2,"la1":30.2991,"la2":30.254,"lo1":-89.0895,"lo2":-89.0444,"dy":0.0017,"dx":0.0017,"nx":28,"ny":28,"refTime":"2025-04-07T09:00:00:Z","depth":"2","parameterNumber":3,"parameterNumberName":"V-component_of_CURRENTS"},"data":[0,0,0,0,0,0,0,0,0,0,0,0,0,0,0,0,0,0,0,0,0,0,0,0,0,0,0,0,0,0,0,0,0,0,0,0,0,0,0,0,0,0,0,0,0,0,0,0,0,0,0,0,0,0,0,0,0,0,0.0196,0.0196,0,0.0155,0.0154,0.0154,0.0123,0.0123,0.0123,0.0123,0.0074,0.0073,0.0072,0,0,0,0,0,0,0,0,0,0,0,0,0,0.019,0.0191,0.0196,0.0196,0.0196,0.0155,0.0154,0.0154,0.0123,0.0123,0.0123,0.0123,0.0075,0.0074,0.0072,0,0,0,0,0,0,0,0,0,0,0,0,0,0.0174,0.0191,0.0196,0.0176,0.0174,0.0155,0.0154,0.0153,0.0123,0.0123,0.0123,0.0123,0.0075,0.0074,0.0072,0.0067,0,0,0.0067,0.0066,0,0,0,0,0,0,0,0,0.0175,0.0175,0.018,0.0178,0.0175,0.0145,0.0134,0.0125,0.0123,0.0142,0.0123,0.0122,0.0098,0.0095,0.0086,0.0065,0.0063,0.0067,0.0066,0.0065,0.0064,0,0,0,0,0,0,0,0.0177,0.0176,0.0179,0.0179,0.0176,0.0149,0.0147,0.0132,0.0121,0.014,0.0138,0.0135,0.0097,0.0088,0.0085,0.0062,0.0067,0.0065,0.0064,0.0064,0.0029,0.0029,0,0,0,0,0,0,0.0187,0.0177,0.018,0.0178,0.0176,0.015,0.0147,0.0154,0.0121,0.0116,0.0135,0.0134,0.0091,0.0087,0.0083,0.0087,0.0065,0.0063,0.0062,0.0029,0.0029,0.0029,0,0,0,0,0,0,0.0187,0.0188,0.0182,0.0177,0.0174,0.0151,0.0158,0.0153,0.0147,0.0118,0.0113,0.0134,0.009,0.0085,0.0075,0.0085,0.0063,0.0061,0.0029,0.0029,0.0029,0.0088,0,0,0,0,0,0,0.0188,0.0189,0.0195,0.0178,0.0175,0.0181,0.0158,0.0153,0.0146,0.0143,0.0115,0.011,0.009,0.0078,0.0073,0.0082,0.006,0.0028,0.0029,0.0029,0.0086,0.009,0.0094,0,0,0,0,0,0.0188,0.0205,0.0196,0.0196,0.0186,0.0182,0.0178,0.0158,0.0146,0.015,0.0128,0.0111,0.0075,0.0077,0.0072,0.008,0.0028,0.0029,0.0029,0.0084,0.0089,0.0094,0,0,0,0,0,0,0.0205,0.0203,0.0193,0.0208,0.0198,0.0177,0.0178,0.0164,0.0149,0.0145,0.0115,0.0109,0.0102,0.0082,0.0084,0.0068,0.0048,0.0047,0.0092,0.0096,0.01,0.0119,0.0058,0,0,0,0,0,0.0212,0.0224,0.0213,0.0223,0.0221,0.0199,0.0193,0.0181,0.0166,0.0159,0.0139,0.0115,0.0098,0.0091,0.0072,0.0067,0.0038,0.0066,0.007,0.0074,0.0085,0.0045,0.0047,0.0029,0.0029,0.0029,0,0,0.022,0.022,0.0226,0.0227,0.0216,0.0228,0.0195,0.0194,0.0201,0.0157,0.0159,0.0129,0.0099,0.0093,0.0088,0.0079,0.0062,0.0074,0.0078,0.0087,0.0046,0.0048,0.0049,0.003,0.003,0.003,0,0,0.0249,0.0244,0.0267,0.0265,0.0257,0.0246,0.025,0.0233,0.0223,0.0217,0.0187,0.0165,0.0141,0.0122,0.0109,0.0123,0.0084,0.0113,0.0151,0.0113,0.0114,0.0115,0.0077,0.0074,0.0116,0.0116,0.0116,0,0.0258,0.0288,0.027,0.0291,0.0299,0.0261,0.0288,0.0273,0.0253,0.0251,0.0227,0.0184,0.0156,0.015,0.0153,0.0133,0.0104,0.0139,0.0119,0.0119,0.0119,0.008,0.0076,0.0119,0.0119,0.0118,0.0118,0,0.0307,0.0328,0.034,0.0359,0.0363,0.0377,0.0361,0.0355,0.0332,0.0316,0.0298,0.0249,0.0227,0.0208,0.0185,0.0174,0.0151,0.0128,0.0111,0.0125,0.0082,0.0077,0.0123,0.0122,0.0121,0.012,0,0,0.034,0.0371,0.0376,0.0401,0.0403,0.0416,0.0423,0.0426,0.044,0.0392,0.0401,0.0351,0.0316,0.0298,0.0256,0.0219,0.0186,0.0179,0.0176,0.015,0.01,0.0075,0.0067,0.0159,0.0159,0.0158,0.007,0,0.0385,0.0446,0.0447,0.0501,0.0534,0.051,0.0524,0.0517,0.05,0.0495,0.0426,0.0416,0.0353,0.0342,0.0294,0.0219,0.0175,0.0212,0.0084,0.0081,0.0063,0.0061,0.0088,0.0011,0.0064,0.0063,0.0063,0,0.0437,0.0475,0.0541,0.0585,0.0596,0.0616,0.0641,0.0653,0.0628,0.0612,0.0576,0.0522,0.0465,0.0405,0.0275,0.0301,0.021,0.0139,0.0133,0.0089,0.0047,0.0005,-0.0001,0.0053,0.0054,0.0055,0.0055,0,0.0482,0.0541,0.0599,0.0615,0.0654,0.0673,0.069,0.0688,0.0719,0.0692,0.0702,0.0611,0.0575,0.0447,0.0294,0.0286,0.0143,0.0111,0.0,-0.0003,-0.0015,-0.0018,0.0017,0.0017,0.0017,0.0018,0.0018,0,0.0537,0.0583,0.0625,0.0659,0.0732,0.0732,0.08,0.0799,0.0816,0.0865,0.0771,0.0779,0.0584,0.0477,0.0325,0.0149,0.0162,0.0009,-0.0026,0.0005,0.0005,0.0016,0.0017,0.0014,0.0015,0.0016,0.0016,0,0.0582,0.0604,0.0679,0.0733,0.0757,0.081,0.0889,0.0939,0.0937,0.0996,0.0992,0.0906,0.0767,0.0562,0.0353,0.0202,0.003,-0.0038,0.0012,-0.0016,-0.0101,-0.0095,-0.017,-0.0171,-0.0173,-0.0174,-0.0175,0,0.0611,0.0653,0.0742,0.0797,0.0826,0.0906,0.0966,0.0999,0.1069,0.1083,0.1123,0.1002,0.095,0.0626,0.0333,0.0056,0.002,-0.0111,-0.0126,-0.0092,-0.0119,-0.0112,-0.0105,-0.0124,-0.0125,-0.0125,-0.0125,0,0.0671,0.0697,0.0763,0.0879,0.0955,0.1058,0.1149,0.1225,0.1267,0.1311,0.135,0.1306,0.0994,0.0721,0.0322,0.0128,-0.0067,-0.0128,-0.0106,-0.0077,-0.0055,-0.008,-0.0074,-0.0129,-0.0128,-0.0128,-0.0128,-0.0128,0.0713,0.0772,0.0858,0.0971,0.1066,0.1195,0.1298,0.1395,0.1513,0.1588,0.1529,0.1463,0.1134,0.0636,0.0288,-0.0095,-0.0072,-0.0202,-0.0199,-0.0195,-0.0169,-0.0151,-0.0238,-0.0238,-0.0238,-0.0239,-0.0239,0,0.0771,0.0839,0.0945,0.1081,0.1198,0.1242,0.1412,0.1516,0.1663,0.1701,0.1728,0.1415,0.1091,0.0698,0.0147,-0.0173,-0.0201,-0.029,-0.0241,-0.0235,-0.023,-0.0205,-0.0284,-0.0285,-0.0286,-0.0287,0,0,0.08,0.091,0.0969,0.1169,0.127,0.1444,0.1552,0.1693,0.1769,0.1824,0.1775,0.1681,0.1208,0.0806,0.0362,0.0042,-0.0028,-0.0035,0.0038,0.0154,0.0163,-0.0144,-0.0094,0,0,0,0,0]}],[{"header":{"parameterUnit":"m.s-1","parameterCategory":2,"la1":30.2991,"la2":30.254,"lo1":-89.0895,"lo2":-89.0444,"dy":0.0017,"dx":0.0017,"nx":28,"ny":28,"refTime":"2025-04-07T09:00:00:Z","depth":"4","parameterNumber":2,"parameterNumberName":"U-component_of_CURRENTS"},"data":[0,0,0,0,0,0,0,0,0,0,0,0,0,0,0,0,0,0,0,0,0,0,0,0,0,0,0,0,0,0,0,0,0,0,0,0,0,0,0,0,0,0,0,0,0,0,0,0,0,0,0,0,0,0,0,0,0,0,0.1856,0.1857,0,0.1919,0.1919,0.192,0.197,0.197,0.1971,0.1972,0.2041,0.2042,0.2043,0,0,0,0,0,0,0,0,0,0,0,0,0,0.1775,0.1776,0.1856,0.1857,0.1858,0.1919,0.1919,0.192,0.197,0.197,0.1971,0.1972,0.204,0.2042,0.2043,0,0,0,0,0,0,0,0,0,0,0,0,0,0.1819,0.1777,0.1856,0.1892,0.1895,0.1919,0.1919,0.192,0.1969,0.197,0.1971,0.1972,0.204,0.2042,0.2043,0.2034,0,0,0.2049,0.205,0,0,0,0,0,0,0,0,0.1817,0.1822,0.1885,0.1889,0.1894,0.1939,0.1916,0.1959,0.1969,0.1939,0.1972,0.1973,0.2008,0.2012,0.2019,0.2037,0.204,0.2049,0.205,0.2051,0.2051,0,0,0,0,0,0,0,0.1814,0.182,0.1879,0.1886,0.1891,0.1903,0.1911,0.1925,0.1965,0.1942,0.1946,0.1956,0.201,0.2017,0.2021,0.2041,0.2049,0.2051,0.2052,0.2052,0.217,0.2172,0,0,0,0,0,0,0.1809,0.1817,0.1877,0.1881,0.1859,0.1904,0.1912,0.1922,0.1965,0.1974,0.1955,0.1958,0.2013,0.2019,0.2024,0.2119,0.2051,0.2053,0.2054,0.2168,0.217,0.2172,0,0,0,0,0,0,0.1807,0.1814,0.1874,0.1852,0.1861,0.1905,0.1915,0.1923,0.1969,0.1976,0.1984,0.1999,0.2014,0.2021,0.2075,0.2118,0.2053,0.2055,0.2165,0.2168,0.2171,0.2242,0,0,0,0,0,0,0.1805,0.1813,0.1838,0.1852,0.1862,0.1912,0.1915,0.1923,0.1972,0.1978,0.2015,0.202,0.2016,0.2073,0.2077,0.2119,0.2056,0.2163,0.2167,0.217,0.2237,0.2247,0.2256,0,0,0,0,0,0.1802,0.1823,0.1839,0.1848,0.1889,0.1913,0.192,0.1953,0.1974,0.1998,0.2031,0.2021,0.21,0.2076,0.208,0.2124,0.2161,0.2166,0.217,0.2233,0.2246,0.2256,0,0,0,0,0,0,0.1803,0.1831,0.1848,0.188,0.1908,0.1923,0.1956,0.1975,0.202,0.204,0.2045,0.2052,0.2116,0.2111,0.2084,0.217,0.213,0.2136,0.2177,0.2188,0.2197,0.2199,0.2058,0,0,0,0,0,0.1814,0.1842,0.1865,0.1897,0.1914,0.1943,0.1967,0.1989,0.202,0.2043,0.2069,0.2101,0.2131,0.2154,0.2176,0.222,0.2218,0.2253,0.2262,0.227,0.2277,0.231,0.2323,0.2188,0.2187,0.2187,0,0,0.1825,0.1845,0.1864,0.1901,0.1928,0.1958,0.1961,0.2008,0.2045,0.2042,0.2115,0.2137,0.2151,0.2205,0.2233,0.2211,0.231,0.2276,0.2283,0.2285,0.2316,0.2329,0.2341,0.2191,0.219,0.219,0,0,0.1844,0.188,0.1906,0.1933,0.1981,0.1998,0.202,0.206,0.2096,0.2156,0.2169,0.222,0.2265,0.2284,0.2297,0.2371,0.2359,0.2385,0.2435,0.2468,0.2479,0.2489,0.251,0.2521,0.2389,0.239,0.239,0,0.1861,0.1893,0.192,0.195,0.1981,0.202,0.2055,0.2092,0.215,0.2183,0.2194,0.2285,0.23,0.236,0.2391,0.2392,0.2406,0.2389,0.248,0.2489,0.2498,0.2517,0.2528,0.2394,0.2393,0.2393,0.2392,0,0.1885,0.1928,0.1949,0.2,0.2036,0.2076,0.2123,0.2176,0.2227,0.2259,0.2346,0.2375,0.2427,0.2445,0.2444,0.2519,0.2508,0.2487,0.2448,0.2516,0.2531,0.2542,0.2399,0.2398,0.2397,0.2396,0,0,0.1872,0.1951,0.1962,0.1996,0.2069,0.2094,0.2171,0.2235,0.2296,0.2359,0.2433,0.2494,0.2521,0.2538,0.2551,0.2585,0.2663,0.2573,0.2572,0.2587,0.2739,0.2567,0.2562,0.2662,0.2664,0.2666,0.2727,0,0.1887,0.1945,0.1987,0.2056,0.2088,0.2153,0.2218,0.2288,0.2359,0.2441,0.2488,0.2567,0.2553,0.2601,0.2632,0.2662,0.2693,0.2648,0.2676,0.2676,0.251,0.2569,0.2673,0.2734,0.2736,0.2738,0.2739,0,0.1886,0.1929,0.1995,0.2083,0.2107,0.2164,0.2277,0.2342,0.2456,0.2516,0.2596,0.264,0.2719,0.2696,0.277,0.2746,0.2753,0.2761,0.2763,0.2583,0.2523,0.2651,0.2757,0.2756,0.2755,0.2753,0.2752,0,0.1838,0.1929,0.1985,0.2016,0.2123,0.2183,0.2255,0.2371,0.244,0.2581,0.2645,0.2732,0.2796,0.2824,0.2845,0.2826,0.2909,0.2876,0.2723,0.2711,0.2815,0.2804,0.292,0.292,0.292,0.2919,0.2919,0,0.181,0.1858,0.1977,0.2005,0.2088,0.2176,0.2282,0.2371,0.2504,0.2576,0.2687,0.2745,0.2836,0.2885,0.2884,0.2831,0.2939,0.2738,0.2716,0.2845,0.2836,0.2822,0.281,0.2922,0.2921,0.2921,0.292,0,0.1739,0.1818,0.1888,0.2018,0.2067,0.2131,0.2288,0.2351,0.2499,0.2601,0.2653,0.2788,0.2847,0.2902,0.2958,0.2861,0.2843,0.2796,0.2943,0.2927,0.2615,0.2607,0.2627,0.2621,0.2617,0.2613,0.261,0,0.1702,0.1735,0.1883,0.1928,0.1996,0.2107,0.2174,0.2335,0.24,0.259,0.2616,0.2744,0.2804,0.2741,0.2819,0.2805,0.2765,0.2734,0.2656,0.261,0.2587,0.2586,0.2583,0.2602,0.2601,0.26,0.2598,0,0.1631,0.1705,0.1762,0.1858,0.194,0.2013,0.2126,0.2159,0.2327,0.2479,0.2512,0.2539,0.2598,0.2626,0.2639,0.2621,0.2742,0.2684,0.2692,0.2619,0.258,0.2561,0.2565,0.2582,0.2585,0.2586,0.2587,0,0.1583,0.1605,0.1693,0.176,0.1853,0.1884,0.1961,0.2022,0.2104,0.2306,0.2311,0.2438,0.257,0.2532,0.2544,0.2518,0.247,0.2368,0.2392,0.2411,0.231,0.2226,0.2106,0,0,0,0,0,0.152,0.1526,0.1582,0.1637,0.1721,0.1776,0.1905,0.1982,0.2142,0.2104,0.2201,0.2242,0.226,0.2334,0.2261,0.2454,0.2486,0.2359,0.2383,0.2492,0.2511,0.241,0,0,0,0,0,0,0.1473,0.1521,0.1536,0.1518,0.1532,0.1603,0.1679,0.1789,0.1781,0.1951,0.1975,0.2097,0.2156,0.2271,0.2214,0.2235,0.2201,0.2446,0.2439,0.2481,0.2498,0.2514,0.2417,0,0,0,0,0]},{"header":{"parameterUnit":"m.s-1","parameterCategory":2,"la1":30.2991,"la2":30.254,"lo1":-89.0895,"lo2":-89.0444,"dy":0.0017,"dx":0.0017,"nx":28,"ny":28,"refTime":"2025-04-07T09:00:00:Z","depth":"4","parameterNumber":3,"parameterNumberName":"V-component_of_CURRENTS"},"data":[0,0,0,0,0,0,0,0,0,0,0,0,0,0,0,0,0,0,0,0,0,0,0,0,0,0,0,0,0,0,0,0,0,0,0,0,0,0,0,0,0,0,0,0,0,0,0,0,0,0,0,0,0,0,0,0,0,0,0.0261,0.0261,0,0.0237,0.0236,0.0236,0.0224,0.0224,0.0224,0.0224,0.0195,0.0194,0.0194,0,0,0,0,0,0,0,0,0,0,0,0,0,0.026,0.026,0.0261,0.0261,0.0261,0.0237,0.0236,0.0236,0.0224,0.0224,0.0224,0.0224,0.0195,0.0194,0.0194,0,0,0,0,0,0,0,0,0,0,0,0,0,0.025,0.026,0.0261,0.0252,0.0251,0.0237,0.0236,0.0236,0.0224,0.0224,0.0224,0.0224,0.0196,0.0195,0.0193,0.0186,0,0,0.019,0.0189,0,0,0,0,0,0,0,0,0.0251,0.025,0.0254,0.0253,0.0251,0.0234,0.0225,0.0219,0.0224,0.0234,0.0224,0.0224,0.0208,0.0206,0.0201,0.0184,0.0183,0.019,0.0189,0.0188,0.0188,0,0,0,0,0,0,0,0.0251,0.0251,0.0251,0.0253,0.0252,0.0236,0.0235,0.0224,0.0221,0.0233,0.0232,0.023,0.0207,0.0202,0.02,0.0183,0.019,0.0189,0.0188,0.0188,0.0157,0.0157,0,0,0,0,0,0,0.0257,0.0252,0.0252,0.0251,0.0251,0.0236,0.0235,0.0239,0.0221,0.0218,0.023,0.0229,0.0204,0.0201,0.0199,0.0201,0.0189,0.0187,0.0187,0.0157,0.0157,0.0157,0,0,0,0,0,0,0.0257,0.0258,0.0253,0.025,0.0249,0.0236,0.0241,0.0239,0.0237,0.0218,0.0216,0.0232,0.0204,0.02,0.0194,0.02,0.0187,0.0186,0.0157,0.0157,0.0157,0.0198,0,0,0,0,0,0,0.0257,0.0258,0.0264,0.0251,0.0249,0.0252,0.0241,0.0238,0.0236,0.0235,0.0219,0.0216,0.0203,0.0196,0.0193,0.0198,0.0185,0.0157,0.0157,0.0157,0.0197,0.02,0.0202,0,0,0,0,0,0.0257,0.0268,0.0264,0.0264,0.0257,0.0253,0.0251,0.0241,0.0236,0.0239,0.0227,0.0217,0.0192,0.0195,0.0192,0.0196,0.0157,0.0157,0.0157,0.0196,0.0199,0.0202,0,0,0,0,0,0,0.0268,0.0267,0.0263,0.0272,0.0265,0.0251,0.0253,0.0245,0.0237,0.0237,0.0219,0.0215,0.021,0.0196,0.0199,0.0185,0.0172,0.0171,0.0203,0.0205,0.0208,0.0224,0.0184,0,0,0,0,0,0.0274,0.0283,0.0274,0.0281,0.028,0.0267,0.0264,0.0257,0.0248,0.0245,0.0233,0.0217,0.0205,0.02,0.0187,0.0182,0.0158,0.018,0.0183,0.0185,0.0194,0.0158,0.0159,0.0156,0.0156,0.0156,0,0,0.0279,0.0279,0.0284,0.0284,0.0278,0.0286,0.0266,0.0265,0.0271,0.0243,0.0247,0.0227,0.0205,0.02,0.0196,0.019,0.0171,0.0185,0.0187,0.0195,0.0158,0.0159,0.0159,0.0156,0.0156,0.0156,0,0,0.0297,0.0296,0.0311,0.0311,0.0307,0.03,0.0302,0.0292,0.0287,0.0285,0.0265,0.0249,0.0232,0.0218,0.0208,0.0214,0.0185,0.0207,0.0234,0.0199,0.0199,0.0199,0.0164,0.0161,0.0208,0.0208,0.0208,0,0.0304,0.0324,0.0313,0.0327,0.0335,0.0311,0.033,0.032,0.0308,0.0308,0.0292,0.0262,0.0242,0.0235,0.0236,0.0221,0.0196,0.0228,0.0203,0.0202,0.0202,0.0166,0.0162,0.021,0.021,0.021,0.021,0,0.0334,0.0351,0.036,0.0375,0.0379,0.039,0.0379,0.0377,0.0364,0.0354,0.0341,0.0305,0.029,0.0273,0.0258,0.0245,0.0226,0.021,0.0199,0.0205,0.0166,0.0161,0.0213,0.0212,0.0212,0.0211,0,0,0.0352,0.0378,0.0383,0.0405,0.0408,0.0418,0.0425,0.0429,0.0442,0.0407,0.0415,0.0376,0.0353,0.0339,0.0308,0.0274,0.0241,0.0245,0.0242,0.0217,0.0162,0.0145,0.0137,0.022,0.0219,0.0219,0.0137,0,0.0382,0.0427,0.043,0.0474,0.0498,0.0486,0.0498,0.0495,0.0486,0.0484,0.0431,0.0426,0.0379,0.0373,0.033,0.0269,0.0229,0.0264,0.0156,0.0153,0.0142,0.0132,0.0217,0.0132,0.0131,0.013,0.013,0,0.0414,0.0444,0.0496,0.0535,0.0545,0.0565,0.059,0.0601,0.0584,0.0575,0.0548,0.0508,0.046,0.0415,0.0303,0.0328,0.0253,0.0193,0.0188,0.0158,0.0126,0.0125,0.0119,0.012,0.0121,0.0122,0.0122,0,0.0442,0.0491,0.0539,0.0553,0.0588,0.0609,0.0628,0.0631,0.0658,0.064,0.0648,0.0574,0.0546,0.0439,0.0313,0.031,0.0181,0.016,0.0069,0.0067,0.009,0.0091,0.0077,0.0077,0.0078,0.0078,0.0078,0,0.0475,0.0515,0.0559,0.0587,0.065,0.0656,0.0718,0.072,0.0738,0.0775,0.0704,0.0702,0.0551,0.0458,0.0333,0.0186,0.0193,0.0074,0.0045,0.0108,0.0112,0.0085,0.0087,0.0075,0.0075,0.0076,0.0077,0,0.0499,0.0525,0.0587,0.0641,0.0667,0.0714,0.0791,0.0832,0.0836,0.088,0.0878,0.0801,0.0677,0.0514,0.0338,0.0223,0.0078,0.0022,0.0104,0.008,-0.0019,-0.0014,-0.0085,-0.0086,-0.0087,-0.0088,-0.0089,0,0.0514,0.0548,0.0635,0.0684,0.0716,0.0791,0.0845,0.0881,0.0932,0.0939,0.096,0.0858,0.0781,0.0523,0.0343,0.0095,0.0056,-0.0028,-0.003,-0.0014,-0.0036,-0.0029,-0.0023,-0.009,-0.0091,-0.0091,-0.0091,0,0.0546,0.0577,0.0632,0.0736,0.0808,0.0896,0.0975,0.1017,0.1055,0.1059,0.1027,0.0888,0.0744,0.0531,0.0335,0.0157,0.0021,-0.004,-0.0039,-0.0041,-0.0022,-0.0041,-0.0033,-0.0095,-0.0094,-0.0094,-0.0094,0,0.057,0.0615,0.0691,0.0783,0.088,0.097,0.1011,0.1062,0.1106,0.1105,0.1091,0.0927,0.0835,0.0564,0.0386,0.0204,0.0153,0.0084,0.0077,0.0079,0.0144,0.0193,0.0163,0,0,0,0,0,0.0591,0.0646,0.0733,0.0835,0.0932,0.0996,0.1085,0.1116,0.1147,0.1135,0.1117,0.098,0.0711,0.0599,0.0415,0.0354,0.0115,0.013,0.003,-0.0116,-0.0111,-0.0066,0,0,0,0,0,0,0.0604,0.0687,0.0733,0.0863,0.0941,0.1055,0.1116,0.114,0.1134,0.113,0.0997,0.0924,0.0671,0.0821,0.0411,0.0356,0.0263,0.0008,0.0003,-0.0118,-0.0114,-0.0111,-0.0063,0,0,0,0,0]}]]